EGV1339 EGCC-EGLL

Flight info

Callsign EGV1339
Flight time 0h 31m
Altitude 19000
Route LISTO L612 HON
Aircraft A346/H-SDE2E3FGHIJ3J4J5M1RWXY/LB1D1

Departure

Time 2026-05-05 17:27
Airport Manchester Airport (EGCC)

Arrival

Time 2026-05-05 17:59
Airport London Heathrow Airport (EGLL)
Time Latitude Longitude Altitude Speed Heading
2026-05-05 17:04 53.36755 -2.28755 241 ft 0 kts 314°
2026-05-05 17:13 53.36744 -2.28735 241 ft 0 kts 314°
2026-05-05 17:13 53.36725 -2.28703 241 ft 0 kts 314°
2026-05-05 17:13 53.36708 -2.28672 241 ft 0 kts 303°
2026-05-05 17:14 53.36705 -2.28644 241 ft 0 kts 262°
2026-05-05 17:14 53.36711 -2.28623 241 ft 0 kts 232°
2026-05-05 17:18 53.36704 -2.28638 241 ft 8 kts 232°
2026-05-05 17:18 53.36653 -2.28743 241 ft 13 kts 225°
2026-05-05 17:19 53.36574 -2.28732 241 ft 13 kts 142°
2026-05-05 17:19 53.36502 -2.28614 241 ft 16 kts 134°
2026-05-05 17:19 53.36408 -2.28518 241 ft 17 kts 182°
2026-05-05 17:19 53.36303 -2.28436 241 ft 18 kts 135°
2026-05-05 17:20 53.36208 -2.28271 241 ft 21 kts 134°
2026-05-05 17:20 53.36099 -2.28081 241 ft 20 kts 134°
2026-05-05 17:20 53.36002 -2.27917 241 ft 21 kts 133°
2026-05-05 17:20 53.35912 -2.27846 241 ft 13 kts 188°
2026-05-05 17:21 53.35812 -2.27864 241 ft 16 kts 186°
2026-05-05 17:21 53.35691 -2.27885 241 ft 19 kts 186°
2026-05-05 17:21 53.35550 -2.27910 241 ft 22 kts 186°
2026-05-05 17:22 53.35296 -2.28182 241 ft 24 kts 225°
2026-05-05 17:22 53.35184 -2.28398 241 ft 25 kts 232°
2026-05-05 17:22 53.35073 -2.28631 241 ft 26 kts 231°
2026-05-05 17:22 53.34946 -2.28862 241 ft 27 kts 226°
2026-05-05 17:23 53.34823 -2.29084 241 ft 19 kts 230°
2026-05-05 17:23 53.34730 -2.29265 241 ft 21 kts 226°
2026-05-05 17:23 53.34676 -2.29324 241 ft 0 kts 200°
2026-05-05 17:25 53.34659 -2.29333 241 ft 12 kts 195°
2026-05-05 17:26 53.34566 -2.29307 241 ft 15 kts 141°
2026-05-05 17:26 53.34572 -2.29156 241 ft 15 kts 37°
2026-05-05 17:26 53.34632 -2.29032 241 ft 15 kts 51°
2026-05-05 17:26 53.34728 -2.28833 241 ft 45 kts 51°
2026-05-05 17:27 53.35078 -2.28109 240 ft 112 kts 51°
2026-05-05 17:27 53.35690 -2.26839 252 ft 165 kts 51°
2026-05-05 17:27 53.36468 -2.25224 585 ft 185 kts 50°
2026-05-05 17:27 53.37266 -2.23497 1283 ft 188 kts 59°
2026-05-05 17:28 53.37461 -2.21398 2133 ft 186 kts 98°
2026-05-05 17:28 53.37038 -2.19302 2667 ft 200 kts 122°
2026-05-05 17:28 53.35957 -2.17679 3051 ft 220 kts 143°
2026-05-05 17:28 53.35026 -2.16887 3298 ft 235 kts 159°
2026-05-05 17:29 53.32720 -2.16648 3842 ft 263 kts 186°
2026-05-05 17:29 53.30873 -2.17056 4509 ft 270 kts 187°
2026-05-05 17:29 53.29011 -2.17470 4914 ft 270 kts 186°
2026-05-05 17:29 53.27137 -2.17838 5002 ft 272 kts 186°
2026-05-05 17:30 53.25257 -2.18163 4993 ft 271 kts 185°
2026-05-05 17:30 53.23373 -2.18470 4989 ft 272 kts 185°
2026-05-05 17:30 53.21483 -2.18772 5000 ft 274 kts 184°
2026-05-05 17:30 53.19588 -2.19069 4989 ft 274 kts 184°
2026-05-05 17:31 53.17690 -2.19365 4992 ft 273 kts 184°
2026-05-05 17:31 53.15806 -2.19656 4996 ft 272 kts 182°
2026-05-05 17:31 53.13925 -2.19470 4984 ft 271 kts 166°
2026-05-05 17:31 53.12104 -2.18465 5257 ft 281 kts 156°
2026-05-05 17:32 53.10302 -2.17211 6351 ft 278 kts 155°
2026-05-05 17:32 53.08557 -2.15966 7447 ft 276 kts 156°
2026-05-05 17:32 53.06767 -2.14699 8326 ft 283 kts 157°
2026-05-05 17:32 53.04929 -2.13411 9167 ft 290 kts 158°
2026-05-05 17:33 53.03046 -2.12102 10063 ft 295 kts 159°
2026-05-05 17:33 53.01120 -2.10772 10742 ft 307 kts 159°
2026-05-05 17:33 52.99092 -2.09382 11234 ft 324 kts 159°
2026-05-05 17:33 52.96946 -2.07909 11687 ft 342 kts 159°
2026-05-05 17:34 52.94687 -2.06361 12145 ft 361 kts 159°
2026-05-05 17:34 52.92308 -2.04730 12575 ft 379 kts 159°
2026-05-05 17:34 52.90632 -2.03587 12881 ft 390 kts 159°
2026-05-05 17:34 52.88104 -2.01853 13638 ft 396 kts 159°
2026-05-05 17:35 52.85547 -2.00090 14475 ft 399 kts 159°
2026-05-05 17:35 52.82974 -1.98317 15293 ft 402 kts 159°
2026-05-05 17:35 52.80382 -1.96538 16071 ft 406 kts 159°
2026-05-05 17:35 52.77758 -1.94745 16848 ft 410 kts 159°
2026-05-05 17:36 52.75140 -1.92961 17617 ft 414 kts 159°
2026-05-05 17:36 52.72467 -1.91146 18358 ft 418 kts 159°
2026-05-05 17:36 52.69766 -1.89312 18810 ft 420 kts 159°
2026-05-05 17:36 52.67058 -1.87475 18997 ft 421 kts 159°
2026-05-05 17:37 52.64346 -1.85638 18992 ft 421 kts 159°
2026-05-05 17:37 52.61635 -1.83806 18995 ft 421 kts 159°
2026-05-05 17:37 52.58929 -1.81978 18995 ft 421 kts 159°
2026-05-05 17:37 52.56219 -1.80151 18996 ft 421 kts 159°
2026-05-05 17:38 52.53510 -1.78326 19000 ft 421 kts 160°
2026-05-05 17:38 52.50802 -1.76505 18991 ft 421 kts 159°
2026-05-05 17:38 52.48093 -1.74688 18995 ft 420 kts 159°
2026-05-05 17:38 52.45383 -1.72870 18997 ft 420 kts 159°
2026-05-05 17:39 52.42677 -1.71056 19000 ft 420 kts 159°
2026-05-05 17:39 52.39973 -1.69246 19000 ft 420 kts 159°
2026-05-05 17:39 52.37302 -1.67271 18998 ft 421 kts 154°
2026-05-05 17:39 52.34780 -1.64811 18995 ft 423 kts 147°
2026-05-05 17:40 52.32441 -1.61884 18996 ft 424 kts 141°
2026-05-05 17:40 52.30198 -1.58741 18995 ft 424 kts 140°
2026-05-05 17:40 52.27973 -1.55565 18878 ft 425 kts 140°
2026-05-05 17:40 52.25744 -1.52396 18308 ft 424 kts 140°
2026-05-05 17:41 52.23518 -1.49262 17744 ft 420 kts 140°
2026-05-05 17:41 52.21317 -1.46176 17282 ft 414 kts 140°
2026-05-05 17:41 52.19145 -1.43135 16862 ft 408 kts 140°
2026-05-05 17:41 52.17003 -1.40138 16427 ft 404 kts 141°
2026-05-05 17:42 52.14880 -1.37177 16043 ft 398 kts 140°
2026-05-05 17:42 52.12810 -1.34291 15948 ft 384 kts 140°
2026-05-05 17:42 52.10813 -1.31506 15824 ft 372 kts 141°
2026-05-05 17:42 52.08902 -1.28846 15687 ft 360 kts 141°
2026-05-05 17:43 52.07025 -1.26241 15534 ft 350 kts 141°
2026-05-05 17:43 52.05206 -1.23718 15445 ft 337 kts 141°
2026-05-05 17:43 52.03456 -1.21287 15374 ft 324 kts 141°
2026-05-05 17:43 52.01768 -1.18955 15242 ft 314 kts 141°
2026-05-05 17:44 52.00135 -1.16694 15134 ft 302 kts 141°
2026-05-05 17:44 51.98574 -1.14533 15095 ft 289 kts 141°
2026-05-05 17:44 51.97063 -1.12447 15021 ft 282 kts 141°
2026-05-05 17:44 51.95569 -1.10396 14947 ft 280 kts 141°
2026-05-05 17:45 51.94075 -1.08337 14679 ft 283 kts 141°
2026-05-05 17:45 51.92564 -1.06248 14244 ft 287 kts 141°
2026-05-05 17:45 51.91037 -1.04147 13881 ft 287 kts 141°
2026-05-05 17:45 51.89524 -1.02067 13602 ft 283 kts 141°
2026-05-05 17:46 51.88028 -1.00015 13287 ft 280 kts 141°
2026-05-05 17:46 51.86531 -0.97961 12816 ft 283 kts 140°
2026-05-05 17:46 51.85180 -0.95674 12528 ft 280 kts 126°
2026-05-05 17:46 51.84206 -0.92970 12211 ft 276 kts 116°
2026-05-05 17:47 51.83365 -0.90191 11939 ft 273 kts 115°
2026-05-05 17:47 51.82546 -0.87430 11625 ft 272 kts 115°
2026-05-05 17:47 51.81726 -0.84681 11316 ft 270 kts 115°
2026-05-05 17:47 51.80904 -0.81961 10990 ft 268 kts 116°
2026-05-05 17:48 51.80081 -0.79259 10705 ft 266 kts 115°
2026-05-05 17:48 51.79263 -0.76592 10414 ft 264 kts 115°
2026-05-05 17:48 51.78453 -0.73947 10102 ft 262 kts 115°
2026-05-05 17:48 51.77639 -0.71308 9765 ft 262 kts 118°
2026-05-05 17:49 51.76424 -0.68992 9392 ft 285 kts 145°
2026-05-05 17:49 51.74570 -0.67717 9010 ft 292 kts 172°
2026-05-05 17:49 51.72555 -0.67872 8639 ft 290 kts 194°
2026-05-05 17:49 51.70620 -0.68786 8277 ft 290 kts 199°
2026-05-05 17:50 51.68716 -0.69848 7909 ft 289 kts 200°
2026-05-05 17:50 51.66821 -0.70939 7502 ft 290 kts 200°
2026-05-05 17:50 51.64913 -0.72053 6999 ft 294 kts 200°
2026-05-05 17:50 51.63007 -0.73172 6509 ft 297 kts 200°
2026-05-05 17:51 51.61050 -0.74325 6009 ft 301 kts 200°
2026-05-05 17:51 51.59131 -0.75700 5460 ft 304 kts 215°
2026-05-05 17:51 51.57549 -0.78010 4877 ft 301 kts 228°
2026-05-05 17:51 51.56200 -0.80459 4352 ft 292 kts 230°
2026-05-05 17:52 51.54876 -0.82917 4010 ft 278 kts 226°
2026-05-05 17:52 51.53351 -0.84507 3961 ft 255 kts 195°
2026-05-05 17:52 51.51667 -0.84956 3981 ft 240 kts 183°
2026-05-05 17:52 51.50048 -0.85096 4003 ft 220 kts 181°
2026-05-05 17:53 51.48602 -0.85047 4014 ft 202 kts 163°
2026-05-05 17:53 51.47468 -0.83899 4005 ft 192 kts 123°
2026-05-05 17:53 51.47078 -0.81926 3991 ft 186 kts 85°
2026-05-05 17:53 51.47259 -0.79875 3937 ft 185 kts 78°
2026-05-05 17:54 51.47450 -0.77836 3706 ft 184 kts 81°
2026-05-05 17:54 51.47568 -0.75826 3462 ft 178 kts 83°
2026-05-05 17:54 51.47650 -0.73887 3204 ft 170 kts 85°
2026-05-05 17:54 51.47689 -0.72036 2970 ft 162 kts 86°
2026-05-05 17:55 51.47706 -0.70230 2763 ft 162 kts 86°
2026-05-05 17:55 51.47713 -0.68420 2552 ft 162 kts 87°
2026-05-05 17:55 51.47716 -0.66612 2354 ft 162 kts 88°
2026-05-05 17:55 51.47716 -0.64804 2130 ft 161 kts 88°
2026-05-05 17:56 51.47717 -0.63011 1918 ft 160 kts 87°
2026-05-05 17:56 51.47718 -0.61223 1704 ft 160 kts 88°
2026-05-05 17:56 51.47721 -0.59429 1474 ft 159 kts 88°
2026-05-05 17:56 51.47724 -0.57651 1247 ft 157 kts 87°
2026-05-05 17:57 51.47728 -0.55903 1022 ft 156 kts 88°
2026-05-05 17:57 51.47733 -0.54155 826 ft 156 kts 87°
2026-05-05 17:57 51.47738 -0.52417 595 ft 155 kts 87°
2026-05-05 17:57 51.47742 -0.50687 393 ft 155 kts 86°
2026-05-05 17:58 51.47745 -0.48967 165 ft 153 kts 87°
2026-05-05 17:58 51.47761 -0.47319 93 ft 136 kts 90°
2026-05-05 17:58 51.47758 -0.46068 97 ft 86 kts 89°
2026-05-05 17:58 51.47760 -0.45316 97 ft 54 kts 89°
2026-05-05 17:59 51.47762 -0.44857 97 ft 26 kts 91°
2026-05-05 17:59 51.47745 -0.44559 97 ft 27 kts 107°
2026-05-05 17:59 51.47682 -0.44325 96 ft 15 kts 115°
2026-05-05 17:59 51.47657 -0.44262 98 ft 3 kts 139°
2026-05-05 18:00 51.47631 -0.44245 97 ft 4 kts 178°
2026-05-05 18:00 51.47604 -0.44289 95 ft 14 kts 248°
2026-05-05 18:00 51.47600 -0.44476 95 ft 18 kts 270°
2026-05-05 18:00 51.47599 -0.44696 95 ft 21 kts 270°
2026-05-05 18:01 51.47598 -0.44954 95 ft 24 kts 270°
2026-05-05 18:01 51.47598 -0.45237 95 ft 26 kts 270°
2026-05-05 18:01 51.47597 -0.45534 94 ft 21 kts 269°
2026-05-05 18:01 51.47596 -0.45790 98 ft 24 kts 270°
2026-05-05 18:02 51.47595 -0.46076 98 ft 26 kts 269°
2026-05-05 18:02 51.47594 -0.46374 98 ft 28 kts 270°
2026-05-05 18:02 51.47592 -0.46631 95 ft 18 kts 270°
2026-05-05 18:02 51.47589 -0.46819 96 ft 14 kts 263°
2026-05-05 18:03 51.47522 -0.46917 97 ft 16 kts 176°
2026-05-05 18:03 51.47399 -0.46878 98 ft 20 kts 167°
2026-05-05 18:03 51.47256 -0.46866 94 ft 22 kts 180°
2026-05-05 18:03 51.47092 -0.46865 94 ft 25 kts 180°
2026-05-05 18:04 51.46993 -0.46880 98 ft 6 kts 226°
2026-05-05 18:04 51.46986 -0.46929 96 ft 0 kts 270°
2026-05-05 18:04 51.46986 -0.46950 96 ft 3 kts 270°
2026-05-05 18:04 51.46986 -0.46982 96 ft 0 kts 270°